Precipitable_Water
0.38 0.38 0.38 0.39 0.40 0.40 0.40 0.43 0.36 0.29 0.31 0.36 0.35 0.38 0.36 0.36 0.37 0.41 0.46 0.48 0.48 0.60 0.65 0.71 0.71 0.70 0.66 0.65 0.60 0.58 0.54 0.49 0.46 0.45 0.57 0.74 0.77 0.75
0.36 0.37 0.35 0.32 0.31 0.30 0.31 0.36 0.40 0.36 0.30 0.36 0.34 0.35 0.36 0.36 0.34 0.35 0.38 0.43 0.46 0.47 0.51 0.61 0.66 0.68 0.63 0.64 0.61 0.60 0.57 0.54 0.48 0.46 0.43 0.52 0.71 0.75
0.26 0.26 0.25 0.26 0.25 0.24 0.22 0.21 0.24 0.28 0.27 0.29 0.33 0.34 0.33 0.32 0.31 0.31 0.32 0.34 0.36 0.42 0.45 0.46 0.55 0.60 0.62 0.59 0.55 0.53 0.53 0.52 0.51 0.47 0.44 0.41 0.45 0.58
0.25 0.25 0.25 0.26 0.25 0.24 0.21 0.19 0.19 0.21 0.22 0.20 0.25 0.25 0.27 0.29 0.29 0.28 0.28 0.28 0.31 0.32 0.35 0.41 0.44 0.46 0.52 0.54 0.53 0.51 0.50 0.49 0.47 0.46 0.44 0.42 0.40 0.40
0.24 0.24 0.24 0.23 0.21 0.21 0.21 0.21 0.21 0.21 0.22 0.20 0.18 0.22 0.23 0.24 0.23 0.25 0.26 0.27 0.27 0.29 0.30 0.34 0.37 0.40 0.45 0.49 0.51 0.51 0.50 0.47 0.44 0.43 0.44 0.42 0.39 0.37
0.25 0.24 0.23 0.22 0.21 0.22 0.24 0.24 0.24 0.23 0.23 0.22 0.20 0.21 0.21 0.21 0.20 0.19 0.19 0.22 0.23 0.27 0.28 0.29 0.33 0.35 0.37 0.41 0.43 0.45 0.47 0.46 0.44 0.43 0.42 0.43 0.42 0.40
0.24 0.24 0.23 0.24 0.23 0.24 0.26 0.25 0.26 0.24 0.23 0.22 0.22 0.22 0.21 0.19 0.18 0.19 0.18 0.20 0.22 0.24 0.25 0.29 0.31 0.32 0.34 0.35 0.37 0.38 0.40 0.42 0.43 0.41 0.40 0.40 0.41 0.41
0.23 0.24 0.25 0.25 0.24 0.24 0.24 0.25 0.25 0.24 0.23 0.23 0.22 0.21 0.21 0.21 0.21 0.20 0.19 0.18 0.17 0.23 0.23 0.26 0.32 0.30 0.32 0.35 0.36 0.37 0.37 0.37 0.37 0.39 0.40 0.39 0.39 0.40
0.24 0.25 0.25 0.25 0.24 0.23 0.24 0.25 0.26 0.26 0.26 0.25 0.23 0.22 0.22 0.23 0.23 0.21 0.20 0.21 0.20 0.23 0.24 0.21 0.26 0.27 0.31 0.31 0.32 0.32 0.33 0.34 0.36 0.37 0.37 0.37 0.37 0.38
0.25 0.24 0.23 0.22 0.24 0.25 0.26 0.27 0.27 0.27 0.27 0.27 0.26 0.24 0.25 0.25 0.25 0.25 0.24 0.24 0.24 0.25 0.28 0.21 0.25 0.23 0.26 0.26 0.28 0.29 0.29 0.29 0.30 0.32 0.32 0.33 0.34 0.34
0.23 0.23 0.23 0.24 0.26 0.27 0.26 0.24 0.25 0.24 0.26 0.26 0.26 0.29 0.29 0.29 0.29 0.27 0.22 0.22 0.19 0.21 0.26 0.25 0.24 0.23 0.25 0.25 0.28 0.28 0.29 0.31 0.31 0.31 0.31 0.31 0.32 0.32
0.23 0.24 0.26 0.26 0.27 0.27 0.26 0.25 0.22 0.22 0.23 0.24 0.24 0.24 0.24 0.23 0.24 0.24 0.24 0.22 0.23 0.23 0.27 0.26 0.25 0.26 0.22 0.25 0.25 0.26 0.27 0.29 0.31 0.32 0.32 0.33 0.33 0.33
0.22 0.24 0.26 0.27 0.28 0.27 0.27 0.26 0.26 0.26 0.26 0.26 0.25 0.26 0.27 0.28 0.30 0.32 0.33 0.31 0.28 0.27 0.31 0.31 0.29 0.29 0.28 0.26 0.27 0.29 0.31 0.31 0.31 0.33 0.33 0.34 0.35 0.36
0.23 0.25 0.27 0.27 0.27 0.27 0.27 0.27 0.27 0.27 0.27 0.26 0.25 0.25 0.27 0.29 0.31 0.34 0.35 0.36 0.36 0.33 0.34 0.35 0.30 0.29 0.28 0.27 0.26 0.30 0.31 0.32 0.31 0.33 0.34 0.35 0.36 0.37
0.26 0.27 0.26 0.26 0.27 0.27 0.27 0.27 0.27 0.26 0.25 0.24 0.24 0.26 0.28 0.30 0.32 0.32 0.34 0.35 0.35 0.35 0.35 0.34 0.31 0.30 0.29 0.26 0.27 0.30 0.30 0.32 0.34 0.34 0.35 0.34 0.34 0.36
0.25 0.26 0.25 0.25 0.26 0.26 0.26 0.26 0.26 0.26 0.25 0.25 0.25 0.27 0.28 0.28 0.29 0.30 0.29 0.29 0.28 0.27 0.31 0.33 0.33 0.32 0.28 0.28 0.28 0.27 0.30 0.29 0.34 0.35 0.35 0.33 0.34 0.35
0.23 0.24 0.23 0.23 0.23 0.23 0.23 0.25 0.26 0.26 0.25 0.25 0.25 0.25 0.26 0.27 0.28 0.30 0.28 0.28 0.26 0.25 0.27 0.31 0.34 0.34 0.33 0.31 0.27 0.28 0.29 0.29 0.31 0.32 0.33 0.31 0.32 0.33
0.21 0.21 0.21 0.22 0.21 0.20 0.20 0.20 0.21 0.21 0.23 0.25 0.25 0.25 0.25 0.26 0.27 0.27 0.27 0.26 0.25 0.26 0.25 0.26 0.29 0.29 0.29 0.32 0.35 0.30 0.32 0.30 0.32 0.33 0.33 0.30 0.29 0.32
0.17 0.19 0.21 0.21 0.19 0.18 0.18 0.18 0.18 0.19 0.19 0.19 0.24 0.25 0.25 0.25 0.26 0.25 0.26 0.25 0.24 0.25 0.25 0.25 0.25 0.24 0.23 0.21 0.28 0.34 0.29 0.31 0.32 0.30 0.31 0.31 0.29 0.30
0.15 0.16 0.17 0.20 0.19 0.18 0.17 0.17 0.17 0.16 0.16 0.18 0.19 0.23 0.24 0.24 0.24 0.24 0.25 0.24 0.24 0.24 0.24 0.25 0.24 0.24 0.22 0.21 0.23 0.28 0.32 0.28 0.27 0.27 0.28 0.31 0.33 0.35
0.15 0.14 0.16 0.17 0.18 0.19 0.18 0.16 0.14 0.12 0.13 0.15 0.17 0.18 0.22 0.24 0.23 0.23 0.24 0.24 0.24 0.23 0.22 0.22 0.25 0.28 0.27 0.27 0.22 0.23 0.26 0.29 0.29 0.27 0.27 0.27 0.27 0.30
0.17 0.16 0.15 0.16 0.15 0.16 0.17 0.17 0.16 0.12 0.12 0.14 0.15 0.15 0.16 0.18 0.20 0.22 0.22 0.21 0.22 0.22 0.22 0.25 0.27 0.27 0.24 0.21 0.20 0.22 0.21 0.23 0.27 0.29 0.28 0.28 0.26 0.24
0.17 0.17 0.16 0.15 0.16 0.15 0.15 0.15 0.15 0.14 0.14 0.12 0.14 0.14 0.13 0.14 0.15 0.15 0.16 0.16 0.18 0.19 0.20 0.22 0.24 0.25 0.25 0.24 0.23 0.23 0.21 0.22 0.23 0.23 0.24 0.28 0.29 0.30
Wind_Speed
41 39 37 36 35 34 34 31 31 30 30 28 29 31 32 32 33 37 40 41 43 47 50 46 48 48 46 46 47 47 47 45 45 45 45 45 44 45
37 35 34 32 31 31 31 32 32 32 32 32 32 31 30 30 31 32 34 37 41 44 44 48 49 50 47 47 46 47 47 46 46 46 47 48 47 46
33 32 32 32 32 33 34 34 34 34 35 34 33 32 32 32 32 32 33 34 36 40 43 45 48 48 51 51 50 50 50 49 47 47 47 48 48 49
31 32 33 34 36 36 37 36 36 36 37 36 35 34 34 34 34 34 34 35 36 38 40 44 48 48 49 51 52 52 51 51 51 51 50 50 51 51
32 34 35 36 37 37 37 37 36 36 36 36 36 35 34 34 34 34 34 33 34 36 37 39 43 48 50 50 51 50 52 53 52 50 50 50 52 53
34 35 36 37 37 37 36 35 34 34 34 35 35 35 34 32 32 32 32 33 33 34 35 35 38 40 43 46 48 50 51 52 52 52 52 51 51 53
36 36 36 37 37 36 35 34 33 33 33 33 33 33 32 31 31 30 31 32 32 33 34 34 35 36 37 41 44 46 48 50 51 52 53 53 53 54
36 37 36 36 35 35 35 34 34 34 33 32 32 33 32 31 31 30 30 29 29 30 31 33 35 38 38 38 39 42 45 48 51 52 51 52 53 53
36 35 35 34 35 34 33 32 32 31 31 31 31 32 32 31 30 30 29 29 29 30 30 32 33 36 38 40 41 41 43 44 47 50 51 52 53 54
34 35 33 32 31 29 28 27 27 27 26 26 27 28 28 28 27 27 27 27 28 29 29 30 31 33 34 37 41 43 44 45 46 48 50 51 52 53
33 31 29 28 26 25 23 22 21 22 22 23 22 22 22 22 23 23 24 24 25 26 28 29 29 31 32 34 35 37 39 42 45 47 49 50 51 52
28 26 26 25 24 23 20 18 18 18 17 16 16 18 19 20 22 22 22 21 20 20 21 23 25 26 27 30 33 34 35 36 38 41 44 47 49 50
24 24 24 23 21 19 17 14 13 11 10 9 9 9 10 10 11 12 14 16 16 17 16 16 17 19 21 22 25 27 30 32 32 34 36 39 42 46
22 22 21 20 19 17 14 12 9 7 4 2 3 4 5 6 7 9 9 10 11 12 12 13 13 14 15 18 21 23 26 29 31 30 32 34 36 40
20 20 19 18 16 15 14 11 9 6 3 1 1 2 3 4 4 5 6 6 7 8 9 10 11 12 14 16 19 21 23 25 27 29 29 30 31 34
18 17 17 15 14 13 12 11 10 8 5 2 0 1 2 3 3 3 3 2 2 3 4 5 7 8 9 11 14 18 22 24 25 27 28 28 29 30
16 15 15 14 13 12 11 10 9 9 7 5 3 1 2 2 3 2 2 1 0 0 1 2 3 4 6 6 8 10 13 19 24 26 26 27 27 28
15 14 13 13 12 11 10 9 9 8 7 5 4 2 1 2 2 2 2 2 1 0 1 3 3 4 5 6 7 7 6 8 13 18 22 23 24 25
15 13 12 11 11 10 9 9 8 7 6 5 4 3 1 2 3 3 3 3 3 3 3 4 5 5 4 5 5 6 5 4 6 9 14 17 20 22
16 13 12 11 10 10 9 8 8 7 6 5 4 4 3 2 3 4 4 4 4 5 5 5 5 6 5 6 6 6 6 4 5 6 10 12 15 18
16 14 12 11 10 9 9 9 8 8 7 5 5 4 4 4 3 4 5 5 6 7 7 7 8 8 7 7 7 6 6 6 6 6 8 10 11 12
16 15 13 11 11 10 9 9 9 8 8 6 6 6 5 5 5 5 5 6 7 7 8 9 8 7 7 6 6 6 7 7 7 7 7 8 10 11
17 15 14 13 12 11 11 10 10 10 9 8 8 7 7 7 7 7 6 6 7 7 7 7 7 7 7 7 7 7 8 7 7 8 8 8 8 9
Wind_Direction
295 293 291 289 287 286 284 283 280 279 273 270 268 268 267 266 264 258 254 252 248 244 243 242 240 241 241 237 239 239 239 239 239 238 237 237 237 237
296 293 292 290 289 288 286 282 278 275 273 269 270 269 268 267 266 263 258 254 249 245 245 242 241 239 239 237 239 238 238 240 239 239 238 237 237 237
297 295 293 291 289 288 286 283 278 275 273 272 270 267 266 267 266 265 261 256 251 248 246 243 241 241 240 238 240 239 239 241 239 239 239 238 237 237
298 296 294 292 290 288 286 282 278 275 273 271 269 268 267 267 266 264 262 258 255 252 249 245 242 240 240 240 240 240 240 240 241 241 242 240 238 237
301 299 297 295 292 290 286 282 279 276 272 270 269 267 267 266 265 263 261 258 256 252 250 247 244 242 241 241 240 239 240 240 240 240 240 240 239 237
304 302 300 297 294 290 287 283 280 277 274 270 267 266 264 264 264 262 260 257 255 253 250 248 244 242 240 240 240 240 240 240 241 240 241 240 240 239
306 305 302 299 297 292 287 283 280 278 275 271 268 264 262 262 262 260 258 258 255 253 250 248 243 242 241 240 241 241 240 240 240 241 241 240 241 241
309 307 305 302 298 295 289 284 280 276 273 270 266 262 262 261 260 258 257 255 253 251 248 247 245 244 242 242 242 241 241 241 241 241 241 240 240 240
312 311 309 305 302 297 290 284 280 276 272 269 266 262 259 258 257 256 254 252 251 252 253 250 248 245 244 245 244 244 243 243 242 241 242 241 241 241
315 314 312 311 308 303 295 288 282 277 273 270 266 261 257 255 253 252 252 253 254 252 251 251 249 248 248 247 246 244 244 244 244 243 242 243 243 243
319 317 317 317 315 311 305 295 286 280 276 272 266 258 254 251 250 250 250 253 253 254 251 250 250 251 250 248 246 245 245 244 244 243 243 243 243 242
324 324 324 322 321 318 312 303 295 288 281 273 263 256 254 252 251 248 249 248 249 254 251 248 251 250 251 248 246 246 245 244 245 244 243 242 241 241
329 330 331 331 330 330 324 317 310 298 289 276 261 251 244 238 234 232 236 240 245 248 251 248 249 248 247 249 246 243 242 243 244 243 241 241 240 239
333 335 338 341 341 344 345 341 340 335 318 271 233 224 221 224 228 229 231 239 241 244 248 247 251 249 250 250 248 248 246 245 241 243 240 240 239 239
336 340 344 348 353 358 0 1 3 6 359 325 224 215 216 213 215 221 228 241 243 247 249 251 255 260 261 259 256 254 251 245 241 239 238 239 241 240
338 342 346 351 356 360 5 13 19 20 21 15 255 192 182 181 190 190 200 219 225 262 251 250 263 271 278 279 272 263 251 244 240 237 238 240 241 241
337 340 346 350 354 0 7 13 18 23 33 45 61 105 159 166 168 168 175 168 275 247 282 317 297 296 303 306 307 286 262 248 242 238 239 241 243 244
337 339 342 347 350 354 360 4 9 14 20 28 33 35 181 194 197 203 209 227 256 12 346 341 339 325 325 333 324 319 305 263 242 235 236 241 244 244
339 334 336 342 345 346 347 350 355 358 2 7 9 9 350 247 237 238 248 250 249 274 303 317 333 335 337 339 337 341 334 302 254 241 240 243 246 248
342 334 329 332 336 339 342 339 340 342 342 340 342 344 339 308 264 257 260 259 264 274 286 298 308 313 314 311 319 327 332 319 287 266 256 255 255 255
343 338 328 324 324 325 329 333 331 332 330 324 321 319 319 314 297 277 273 273 276 280 281 287 293 294 297 300 305 302 304 312 304 292 280 269 262 260
341 339 331 321 315 312 312 315 318 322 318 312 308 304 302 297 295 296 290 284 284 285 283 285 289 290 292 296 295 292 300 300 297 295 299 288 271 263
339 337 335 324 316 307 303 304 303 305 306 303 298 296 292 287 285 284 284 291 291 293 294 290 294 291 288 287 287 286 297 298 296 294 291 297 294 280